#datetime,building,power
2022-03-29T00:00:00,mcc,54.50
2022-03-29T00:01:00,mcc,53.99
2022-03-29T00:02:00,mcc,54.36
2022-03-29T00:03:00,mcc,52.89
2022-03-29T00:04:00,mcc,52.81
2022-03-29T00:05:00,mcc,54.09
2022-03-29T00:06:00,mcc,57.25
2022-03-29T00:07:00,mcc,52.20
2022-03-29T00:08:00,mcc,54.72
2022-03-29T00:09:00,mcc,56.64
2022-03-29T00:10:00,mcc,64.19
2022-03-29T00:11:00,mcc,55.79
2022-03-29T00:12:00,mcc,52.95
2022-03-29T00:13:00,mcc,62.30
2022-03-29T00:14:00,mcc,60.88
2022-03-29T00:15:00,mcc,63.35
2022-03-29T00:16:00,mcc,61.21
2022-03-29T00:17:00,mcc,53.21
2022-03-29T00:18:00,mcc,54.06
2022-03-29T00:19:00,mcc,57.06
2022-03-29T00:20:00,mcc,57.51
2022-03-29T00:21:00,mcc,54.75
2022-03-29T00:22:00,mcc,55.04
2022-03-29T00:23:00,mcc,57.63
2022-03-29T00:24:00,mcc,53.43
2022-03-29T00:25:00,mcc,54.46
2022-03-29T00:26:00,mcc,53.12
2022-03-29T00:27:00,mcc,51.58
2022-03-29T00:28:00,mcc,53.89
2022-03-29T00:29:00,mcc,50.93
2022-03-29T00:30:00,mcc,59.02
2022-03-29T00:31:00,mcc,55.80
2022-03-29T00:32:00,mcc,52.29
2022-03-29T00:33:00,mcc,49.68
2022-03-29T00:34:00,mcc,49.69
2022-03-29T00:35:00,mcc,49.59
2022-03-29T00:36:00,mcc,49.09
2022-03-29T00:37:00,mcc,48.02
2022-03-29T00:38:00,mcc,48.01
2022-03-29T00:39:00,mcc,48.41
2022-03-29T00:40:00,mcc,46.29
2022-03-29T00:41:00,mcc,47.32
2022-03-29T00:42:00,mcc,48.12
2022-03-29T00:43:00,mcc,49.19
2022-03-29T00:44:00,mcc,51.22
2022-03-29T00:45:00,mcc,49.34
2022-03-29T00:46:00,mcc,48.80
2022-03-29T00:47:00,mcc,54.61
2022-03-29T00:48:00,mcc,45.78
2022-03-29T00:49:00,mcc,46.46
2022-03-29T00:50:00,mcc,46.33
2022-03-29T00:51:00,mcc,47.80
2022-03-29T00:52:00,mcc,48.41
2022-03-29T00:53:00,mcc,53.05
2022-03-29T00:54:00,mcc,48.85
2022-03-29T00:55:00,mcc,48.61
2022-03-29T00:56:00,mcc,50.91
2022-03-29T00:57:00,mcc,48.19
2022-03-29T00:58:00,mcc,49.18
2022-03-29T00:59:00,mcc,49.22
2022-03-29T01:00:00,mcc,47.76
2022-03-29T01:01:00,mcc,47.41
2022-03-29T01:02:00,mcc,45.95
2022-03-29T01:03:00,mcc,46.97
2022-03-29T01:04:00,mcc,47.81
2022-03-29T01:05:00,mcc,54.58
2022-03-29T01:06:00,mcc,47.10
2022-03-29T01:07:00,mcc,45.74
2022-03-29T01:08:00,mcc,45.87
2022-03-29T01:09:00,mcc,46.65
2022-03-29T01:10:00,mcc,49.32
2022-03-29T01:11:00,mcc,49.40
2022-03-29T01:12:00,mcc,51.04
2022-03-29T01:13:00,mcc,49.58
2022-03-29T01:14:00,mcc,48.62
2022-03-29T01:15:00,mcc,49.45
2022-03-29T01:16:00,mcc,49.37
2022-03-29T01:17:00,mcc,48.72
2022-03-29T01:18:00,mcc,48.43
2022-03-29T01:19:00,mcc,51.56
2022-03-29T01:20:00,mcc,53.55
2022-03-29T01:21:00,mcc,51.54
2022-03-29T01:22:00,mcc,51.58
2022-03-29T01:23:00,mcc,59.31
2022-03-29T01:24:00,mcc,51.19
2022-03-29T01:25:00,mcc,50.80
2022-03-29T01:26:00,mcc,52.23
2022-03-29T01:27:00,mcc,49.74
2022-03-29T01:28:00,mcc,49.78
2022-03-29T01:29:00,mcc,51.70
2022-03-29T01:30:00,mcc,48.29
2022-03-29T01:31:00,mcc,48.15
2022-03-29T01:32:00,mcc,47.35
2022-03-29T01:33:00,mcc,50.22
2022-03-29T01:34:00,mcc,49.64
2022-03-29T01:35:00,mcc,49.85
2022-03-29T01:36:00,mcc,49.07
2022-03-29T01:37:00,mcc,51.44
2022-03-29T01:38:00,mcc,49.60
2022-03-29T01:39:00,mcc,51.96
2022-03-29T01:40:00,mcc,54.93
2022-03-29T01:41:00,mcc,50.19
2022-03-29T01:42:00,mcc,49.20
2022-03-29T01:43:00,mcc,50.75
2022-03-29T01:44:00,mcc,49.87
2022-03-29T01:45:00,mcc,50.28
2022-03-29T01:46:00,mcc,53.32
2022-03-29T01:47:00,mcc,51.06
2022-03-29T01:48:00,mcc,54.50
2022-03-29T01:49:00,mcc,50.85
2022-03-29T01:50:00,mcc,50.28
2022-03-29T01:51:00,mcc,49.59
2022-03-29T01:52:00,mcc,47.61
2022-03-29T01:53:00,mcc,47.67
2022-03-29T01:54:00,mcc,47.56
2022-03-29T01:55:00,mcc,48.48
2022-03-29T01:56:00,mcc,49.13
2022-03-29T01:57:00,mcc,48.79
2022-03-29T01:58:00,mcc,48.62
2022-03-29T01:59:00,mcc,52.60
2022-03-29T02:00:00,mcc,48.44
2022-03-29T02:01:00,mcc,48.33
2022-03-29T02:02:00,mcc,51.40
2022-03-29T02:03:00,mcc,52.44
2022-03-29T02:04:00,mcc,50.72
2022-03-29T02:05:00,mcc,53.14
2022-03-29T02:06:00,mcc,49.55
2022-03-29T02:07:00,mcc,49.74
2022-03-29T02:08:00,mcc,47.79
2022-03-29T02:09:00,mcc,50.74
2022-03-29T02:10:00,mcc,48.74
2022-03-29T02:11:00,mcc,49.60
2022-03-29T02:12:00,mcc,48.45
2022-03-29T02:13:00,mcc,51.93
2022-03-29T02:14:00,mcc,49.60
2022-03-29T02:15:00,mcc,49.47
2022-03-29T02:16:00,mcc,50.31
2022-03-29T02:17:00,mcc,47.33
2022-03-29T02:18:00,mcc,46.69
2022-03-29T02:19:00,mcc,46.68
2022-03-29T02:20:00,mcc,46.90
2022-03-29T02:21:00,mcc,46.65
2022-03-29T02:22:00,mcc,47.22
2022-03-29T02:23:00,mcc,49.77
2022-03-29T02:24:00,mcc,51.58
2022-03-29T02:25:00,mcc,49.07
2022-03-29T02:26:00,mcc,48.70
2022-03-29T02:27:00,mcc,49.89
2022-03-29T02:28:00,mcc,46.79
2022-03-29T02:29:00,mcc,54.45
2022-03-29T02:30:00,mcc,47.48
2022-03-29T02:31:00,mcc,46.65
2022-03-29T02:32:00,mcc,47.30
2022-03-29T02:33:00,mcc,50.29
2022-03-29T02:34:00,mcc,48.09
2022-03-29T02:35:00,mcc,49.81
2022-03-29T02:36:00,mcc,47.71
2022-03-29T02:37:00,mcc,49.00
2022-03-29T02:38:00,mcc,49.89
2022-03-29T02:39:00,mcc,49.81
2022-03-29T02:40:00,mcc,49.38
2022-03-29T02:41:00,mcc,52.25
2022-03-29T02:42:00,mcc,48.78
2022-03-29T02:43:00,mcc,49.68
2022-03-29T02:44:00,mcc,51.78
2022-03-29T02:45:00,mcc,47.95
2022-03-29T02:46:00,mcc,48.74
2022-03-29T02:47:00,mcc,48.78
2022-03-29T02:48:00,mcc,51.05
2022-03-29T02:49:00,mcc,48.92
2022-03-29T02:50:00,mcc,46.38
2022-03-29T02:51:00,mcc,46.56
2022-03-29T02:52:00,mcc,50.41
2022-03-29T02:53:00,mcc,49.34
2022-03-29T02:54:00,mcc,49.88
2022-03-29T02:55:00,mcc,51.50
2022-03-29T02:56:00,mcc,45.83
2022-03-29T02:57:00,mcc,46.55
2022-03-29T02:58:00,mcc,46.32
2022-03-29T02:59:00,mcc,50.06
2022-03-29T03:00:00,mcc,50.34
2022-03-29T03:01:00,mcc,50.84
2022-03-29T03:02:00,mcc,47.94
2022-03-29T03:03:00,mcc,47.29
2022-03-29T03:04:00,mcc,49.49
2022-03-29T03:05:00,mcc,50.63
2022-03-29T03:06:00,mcc,51.14
2022-03-29T03:07:00,mcc,50.90
2022-03-29T03:08:00,mcc,49.35
2022-03-29T03:09:00,mcc,49.63
2022-03-29T03:10:00,mcc,47.40
2022-03-29T03:11:00,mcc,47.95
2022-03-29T03:12:00,mcc,48.17
2022-03-29T03:13:00,mcc,45.90
2022-03-29T03:14:00,mcc,48.09
2022-03-29T03:15:00,mcc,47.42
2022-03-29T03:16:00,mcc,48.09
2022-03-29T03:17:00,mcc,48.21
2022-03-29T03:18:00,mcc,48.04
2022-03-29T03:19:00,mcc,48.31
2022-03-29T03:20:00,mcc,52.92
2022-03-29T03:21:00,mcc,48.50
2022-03-29T03:22:00,mcc,48.74
2022-03-29T03:23:00,mcc,50.65
2022-03-29T03:24:00,mcc,47.94
2022-03-29T03:25:00,mcc,48.14
2022-03-29T03:26:00,mcc,49.04
2022-03-29T03:27:00,mcc,50.57
2022-03-29T03:28:00,mcc,49.67
2022-03-29T03:29:00,mcc,48.69
2022-03-29T03:30:00,mcc,46.21
2022-03-29T03:31:00,mcc,46.16
2022-03-29T03:32:00,mcc,45.68
2022-03-29T03:33:00,mcc,46.26
2022-03-29T03:34:00,mcc,47.54
2022-03-29T03:35:00,mcc,48.15
2022-03-29T03:36:00,mcc,47.39
2022-03-29T03:37:00,mcc,46.07
2022-03-29T03:38:00,mcc,47.42
2022-03-29T03:39:00,mcc,45.90
2022-03-29T03:40:00,mcc,48.03
2022-03-29T03:41:00,mcc,47.51
2022-03-29T03:42:00,mcc,46.98
2022-03-29T03:43:00,mcc,47.13
2022-03-29T03:44:00,mcc,47.88
2022-03-29T03:45:00,mcc,49.33
2022-03-29T03:46:00,mcc,49.32
2022-03-29T03:47:00,mcc,50.01
2022-03-29T03:48:00,mcc,49.29
2022-03-29T03:49:00,mcc,48.70
2022-03-29T03:50:00,mcc,45.75
2022-03-29T03:51:00,mcc,50.91
2022-03-29T03:52:00,mcc,49.97
2022-03-29T03:53:00,mcc,48.50
2022-03-29T03:54:00,mcc,51.42
2022-03-29T03:55:00,mcc,49.94
2022-03-29T03:56:00,mcc,49.68
2022-03-29T03:57:00,mcc,51.83
2022-03-29T03:58:00,mcc,49.01
2022-03-29T03:59:00,mcc,45.51
2022-03-29T04:00:00,mcc,47.37
2022-03-29T04:01:00,mcc,47.35
2022-03-29T04:02:00,mcc,46.16
2022-03-29T04:03:00,mcc,49.42
2022-03-29T04:04:00,mcc,45.91
2022-03-29T04:05:00,mcc,47.28
2022-03-29T04:06:00,mcc,49.36
2022-03-29T04:07:00,mcc,47.61
2022-03-29T04:08:00,mcc,48.79
2022-03-29T04:09:00,mcc,49.77
2022-03-29T04:10:00,mcc,58.36
2022-03-29T04:11:00,mcc,55.70
2022-03-29T04:12:00,mcc,55.16
2022-03-29T04:13:00,mcc,56.27
2022-03-29T04:14:00,mcc,53.06
2022-03-29T04:15:00,mcc,50.64
2022-03-29T04:16:00,mcc,59.20
2022-03-29T04:17:00,mcc,57.76
2022-03-29T04:18:00,mcc,55.15
2022-03-29T04:19:00,mcc,54.85
2022-03-29T04:20:00,mcc,57.22
2022-03-29T04:21:00,mcc,54.69
2022-03-29T04:22:00,mcc,49.30
2022-03-29T04:23:00,mcc,49.04
2022-03-29T04:24:00,mcc,49.09
2022-03-29T04:25:00,mcc,50.04
2022-03-29T04:26:00,mcc,56.69
2022-03-29T04:27:00,mcc,48.46
2022-03-29T04:28:00,mcc,50.83
2022-03-29T04:29:00,mcc,49.98
2022-03-29T04:30:00,mcc,50.19
2022-03-29T04:31:00,mcc,49.46
2022-03-29T04:32:00,mcc,49.15
2022-03-29T04:33:00,mcc,48.25
2022-03-29T04:34:00,mcc,45.60
2022-03-29T04:35:00,mcc,45.99
2022-03-29T04:36:00,mcc,47.87
2022-03-29T04:37:00,mcc,49.59
2022-03-29T04:38:00,mcc,49.34
2022-03-29T04:39:00,mcc,47.64
2022-03-29T04:40:00,mcc,50.86
2022-03-29T04:41:00,mcc,49.76
2022-03-29T04:42:00,mcc,49.56
2022-03-29T04:43:00,mcc,49.62
2022-03-29T04:44:00,mcc,50.50
2022-03-29T04:45:00,mcc,52.20
2022-03-29T04:46:00,mcc,51.29
2022-03-29T04:47:00,mcc,49.58
2022-03-29T04:48:00,mcc,52.79
2022-03-29T04:49:00,mcc,50.98
2022-03-29T04:50:00,mcc,48.89
2022-03-29T04:51:00,mcc,49.69
2022-03-29T04:52:00,mcc,46.83
2022-03-29T04:53:00,mcc,47.90
2022-03-29T04:54:00,mcc,51.50
2022-03-29T04:55:00,mcc,48.67
2022-03-29T04:56:00,mcc,48.56
2022-03-29T04:57:00,mcc,51.76
2022-03-29T04:58:00,mcc,50.15
2022-03-29T04:59:00,mcc,47.41
2022-03-29T05:00:00,mcc,47.82
2022-03-29T05:01:00,mcc,47.62
2022-03-29T05:02:00,mcc,45.76
2022-03-29T05:03:00,mcc,47.73
2022-03-29T05:04:00,mcc,53.98
2022-03-29T05:05:00,mcc,46.37
2022-03-29T05:06:00,mcc,49.47
2022-03-29T05:07:00,mcc,50.89
2022-03-29T05:08:00,mcc,49.22
2022-03-29T05:09:00,mcc,49.90
2022-03-29T05:10:00,mcc,49.83
2022-03-29T05:11:00,mcc,49.96
2022-03-29T05:12:00,mcc,49.80
2022-03-29T05:13:00,mcc,49.18
2022-03-29T05:14:00,mcc,52.20
2022-03-29T05:15:00,mcc,47.87
2022-03-29T05:16:00,mcc,48.61
2022-03-29T05:17:00,mcc,52.15
2022-03-29T05:18:00,mcc,50.70
2022-03-29T05:19:00,mcc,51.14
2022-03-29T05:20:00,mcc,53.05
2022-03-29T05:21:00,mcc,49.23
2022-03-29T05:22:00,mcc,47.32
2022-03-29T05:23:00,mcc,48.49
2022-03-29T05:24:00,mcc,47.41
2022-03-29T05:25:00,mcc,50.80
2022-03-29T05:26:00,mcc,52.00
2022-03-29T05:27:00,mcc,50.34
2022-03-29T05:28:00,mcc,49.74
2022-03-29T05:29:00,mcc,50.95
2022-03-29T05:30:00,mcc,52.06
2022-03-29T05:31:00,mcc,53.37
2022-03-29T05:32:00,mcc,51.90
2022-03-29T05:33:00,mcc,51.69
2022-03-29T05:34:00,mcc,51.73
2022-03-29T05:35:00,mcc,49.05
2022-03-29T05:36:00,mcc,49.84
2022-03-29T05:37:00,mcc,49.59
2022-03-29T05:38:00,mcc,52.01
2022-03-29T05:39:00,mcc,50.98
2022-03-29T05:40:00,mcc,60.16
2022-03-29T05:41:00,mcc,51.03
2022-03-29T05:42:00,mcc,52.72
2022-03-29T05:43:00,mcc,53.82
2022-03-29T05:44:00,mcc,53.57
2022-03-29T05:45:00,mcc,53.89
2022-03-29T05:46:00,mcc,55.23
2022-03-29T05:47:00,mcc,53.20
2022-03-29T05:48:00,mcc,52.92
2022-03-29T05:49:00,mcc,54.88
2022-03-29T05:50:00,mcc,50.78
2022-03-29T05:51:00,mcc,51.81
2022-03-29T05:52:00,mcc,54.91
2022-03-29T05:53:00,mcc,51.82
2022-03-29T05:54:00,mcc,52.97
2022-03-29T05:55:00,mcc,49.66
2022-03-29T05:56:00,mcc,50.71
2022-03-29T05:57:00,mcc,51.51
2022-03-29T05:58:00,mcc,62.24
2022-03-29T05:59:00,mcc,54.90
2022-03-29T06:00:00,mcc,58.27
2022-03-29T06:01:00,mcc,57.37
2022-03-29T06:02:00,mcc,56.38
2022-03-29T06:03:00,mcc,57.50
2022-03-29T06:04:00,mcc,54.62
2022-03-29T06:05:00,mcc,53.42
2022-03-29T06:06:00,mcc,55.58
2022-03-29T06:07:00,mcc,53.93
2022-03-29T06:08:00,mcc,53.44
2022-03-29T06:09:00,mcc,52.29
2022-03-29T06:10:00,mcc,51.32
2022-03-29T06:11:00,mcc,52.42
2022-03-29T06:12:00,mcc,55.86
2022-03-29T06:13:00,mcc,52.32
2022-03-29T06:14:00,mcc,53.36
2022-03-29T06:15:00,mcc,54.90
2022-03-29T06:16:00,mcc,51.45
2022-03-29T06:17:00,mcc,51.79
2022-03-29T06:18:00,mcc,51.85
2022-03-29T06:19:00,mcc,58.03
2022-03-29T06:20:00,mcc,57.84
2022-03-29T06:21:00,mcc,58.99
2022-03-29T06:22:00,mcc,56.49
2022-03-29T06:23:00,mcc,53.53
2022-03-29T06:24:00,mcc,55.08
2022-03-29T06:25:00,mcc,57.55
2022-03-29T06:26:00,mcc,61.19
2022-03-29T06:27:00,mcc,60.62
2022-03-29T06:28:00,mcc,57.88
2022-03-29T06:29:00,mcc,57.84
2022-03-29T06:30:00,mcc,57.45
2022-03-29T06:31:00,mcc,55.14
2022-03-29T06:32:00,mcc,56.63
2022-03-29T06:33:00,mcc,54.98
2022-03-29T06:34:00,mcc,53.26
2022-03-29T06:35:00,mcc,55.09
2022-03-29T06:36:00,mcc,52.70
2022-03-29T06:37:00,mcc,67.92
2022-03-29T06:38:00,mcc,50.85
2022-03-29T06:39:00,mcc,53.86
2022-03-29T06:40:00,mcc,55.23
2022-03-29T06:41:00,mcc,56.91
2022-03-29T06:42:00,mcc,55.05
2022-03-29T06:43:00,mcc,74.07
2022-03-29T06:44:00,mcc,61.91
2022-03-29T06:45:00,mcc,61.24
2022-03-29T06:46:00,mcc,64.22
2022-03-29T06:47:00,mcc,65.48
2022-03-29T06:48:00,mcc,71.86
2022-03-29T06:49:00,mcc,71.09
2022-03-29T06:50:00,mcc,68.88
2022-03-29T06:51:00,mcc,67.36
2022-03-29T06:52:00,mcc,66.49
2022-03-29T06:53:00,mcc,74.04
2022-03-29T06:54:00,mcc,61.89
2022-03-29T06:55:00,mcc,83.30
2022-03-29T06:56:00,mcc,63.92
2022-03-29T06:57:00,mcc,57.32
2022-03-29T06:58:00,mcc,59.29
2022-03-29T06:59:00,mcc,57.63
2022-03-29T07:00:00,mcc,56.11
2022-03-29T07:01:00,mcc,55.12
2022-03-29T07:02:00,mcc,56.94
2022-03-29T07:03:00,mcc,62.98
2022-03-29T07:04:00,mcc,55.53
2022-03-29T07:05:00,mcc,57.07
2022-03-29T07:06:00,mcc,58.12
2022-03-29T07:07:00,mcc,56.23
2022-03-29T07:08:00,mcc,56.33
2022-03-29T07:09:00,mcc,56.25
2022-03-29T07:10:00,mcc,59.34
2022-03-29T07:11:00,mcc,56.06
2022-03-29T07:12:00,mcc,62.84
2022-03-29T07:13:00,mcc,53.24
2022-03-29T07:14:00,mcc,55.35
2022-03-29T07:15:00,mcc,62.22
2022-03-29T07:16:00,mcc,49.99
2022-03-29T07:17:00,mcc,49.52
2022-03-29T07:18:00,mcc,51.01
2022-03-29T07:19:00,mcc,51.81
2022-03-29T07:20:00,mcc,49.25
2022-03-29T07:21:00,mcc,59.21
2022-03-29T07:22:00,mcc,57.85
2022-03-29T07:23:00,mcc,50.08
2022-03-29T07:24:00,mcc,53.16
2022-03-29T07:25:00,mcc,51.11
2022-03-29T07:26:00,mcc,49.92
2022-03-29T07:27:00,mcc,52.21
2022-03-29T07:28:00,mcc,51.91
2022-03-29T07:29:00,mcc,57.83
2022-03-29T07:30:00,mcc,58.36
2022-03-29T07:31:00,mcc,53.51
2022-03-29T07:32:00,mcc,53.83
2022-03-29T07:33:00,mcc,61.56
2022-03-29T07:34:00,mcc,54.11
2022-03-29T07:35:00,mcc,57.33
2022-03-29T07:36:00,mcc,53.95
2022-03-29T07:37:00,mcc,51.62
2022-03-29T07:38:00,mcc,54.20
2022-03-29T07:39:00,mcc,50.59
2022-03-29T07:40:00,mcc,50.64
2022-03-29T07:41:00,mcc,53.50
2022-03-29T07:42:00,mcc,59.50
2022-03-29T07:43:00,mcc,59.18
2022-03-29T07:44:00,mcc,57.93
2022-03-29T07:45:00,mcc,59.04
2022-03-29T07:46:00,mcc,54.75
2022-03-29T07:47:00,mcc,53.00
2022-03-29T07:48:00,mcc,54.31
2022-03-29T07:49:00,mcc,54.84
2022-03-29T07:50:00,mcc,61.10
2022-03-29T07:51:00,mcc,52.26
2022-03-29T07:52:00,mcc,54.70
2022-03-29T07:53:00,mcc,53.83
2022-03-29T07:54:00,mcc,56.19
2022-03-29T07:55:00,mcc,57.93
2022-03-29T07:56:00,mcc,53.60
2022-03-29T07:57:00,mcc,53.32
2022-03-29T07:58:00,mcc,54.77
2022-03-29T07:59:00,mcc,55.68
2022-03-29T08:00:00,mcc,56.35
2022-03-29T08:01:00,mcc,56.25
2022-03-29T08:02:00,mcc,55.50
2022-03-29T08:03:00,mcc,53.10
2022-03-29T08:04:00,mcc,52.78
2022-03-29T08:05:00,mcc,54.49
2022-03-29T08:06:00,mcc,62.24
2022-03-29T08:07:00,mcc,55.35
2022-03-29T08:08:00,mcc,56.74
2022-03-29T08:09:00,mcc,74.45
2022-03-29T08:10:00,mcc,54.66
2022-03-29T08:11:00,mcc,53.65
2022-03-29T08:12:00,mcc,71.19
2022-03-29T08:13:00,mcc,53.83
2022-03-29T08:14:00,mcc,56.20
2022-03-29T08:15:00,mcc,57.84
2022-03-29T08:16:00,mcc,58.85
2022-03-29T08:17:00,mcc,56.26
2022-03-29T08:18:00,mcc,57.96
2022-03-29T08:19:00,mcc,57.25
2022-03-29T08:20:00,mcc,57.68
2022-03-29T08:21:00,mcc,58.27
2022-03-29T08:22:00,mcc,53.70
2022-03-29T08:23:00,mcc,54.48
2022-03-29T08:24:00,mcc,65.51
2022-03-29T08:25:00,mcc,53.78
2022-03-29T08:26:00,mcc,55.50
2022-03-29T08:27:00,mcc,61.27
2022-03-29T08:28:00,mcc,54.45
2022-03-29T08:29:00,mcc,52.52
2022-03-29T08:30:00,mcc,68.40
2022-03-29T08:31:00,mcc,52.77
2022-03-29T08:32:00,mcc,50.67
2022-03-29T08:33:00,mcc,58.13
2022-03-29T08:34:00,mcc,54.02
2022-03-29T08:35:00,mcc,52.20
2022-03-29T08:36:00,mcc,53.31
2022-03-29T08:37:00,mcc,57.91
2022-03-29T08:38:00,mcc,56.07
2022-03-29T08:39:00,mcc,63.74
2022-03-29T08:40:00,mcc,64.23
2022-03-29T08:41:00,mcc,71.11
2022-03-29T08:42:00,mcc,83.61
2022-03-29T08:43:00,mcc,73.51
2022-03-29T08:44:00,mcc,56.26
2022-03-29T08:45:00,mcc,56.15
2022-03-29T08:46:00,mcc,53.95
2022-03-29T08:47:00,mcc,53.74
2022-03-29T08:48:00,mcc,80.41
2022-03-29T08:49:00,mcc,54.86
2022-03-29T08:50:00,mcc,55.67
2022-03-29T08:51:00,mcc,58.68
2022-03-29T08:52:00,mcc,55.31
2022-03-29T08:53:00,mcc,56.61
2022-03-29T08:54:00,mcc,73.50
2022-03-29T08:55:00,mcc,54.48
2022-03-29T08:56:00,mcc,55.24
2022-03-29T08:57:00,mcc,62.24
2022-03-29T08:58:00,mcc,55.45
2022-03-29T08:59:00,mcc,54.02
2022-03-29T09:00:00,mcc,54.68
2022-03-29T09:01:00,mcc,57.23
2022-03-29T09:02:00,mcc,56.10
2022-03-29T09:03:00,mcc,57.44
2022-03-29T09:04:00,mcc,57.31
2022-03-29T09:05:00,mcc,62.27
2022-03-29T09:06:00,mcc,55.08
2022-03-29T09:07:00,mcc,54.62
2022-03-29T09:08:00,mcc,58.49
2022-03-29T09:09:00,mcc,54.71
2022-03-29T09:10:00,mcc,57.78
2022-03-29T09:11:00,mcc,61.30
2022-03-29T09:12:00,mcc,56.29
2022-03-29T09:13:00,mcc,54.43
2022-03-29T09:14:00,mcc,56.05
2022-03-29T09:15:00,mcc,57.90
2022-03-29T09:16:00,mcc,55.50
2022-03-29T09:17:00,mcc,64.38
2022-03-29T09:18:00,mcc,54.91
2022-03-29T09:19:00,mcc,53.82
2022-03-29T09:20:00,mcc,53.24
2022-03-29T09:21:00,mcc,58.69
2022-03-29T09:22:00,mcc,55.25
2022-03-29T09:23:00,mcc,53.03
2022-03-29T09:24:00,mcc,55.15
2022-03-29T09:25:00,mcc,55.77
2022-03-29T09:26:00,mcc,57.01
2022-03-29T09:27:00,mcc,59.56
2022-03-29T09:28:00,mcc,58.38
2022-03-29T09:29:00,mcc,55.96
2022-03-29T09:30:00,mcc,58.88
2022-03-29T09:31:00,mcc,57.00
2022-03-29T09:32:00,mcc,58.04
2022-03-29T09:33:00,mcc,58.13
2022-03-29T09:34:00,mcc,56.88
2022-03-29T09:35:00,mcc,57.48
2022-03-29T09:36:00,mcc,53.68
2022-03-29T09:37:00,mcc,54.98
2022-03-29T09:38:00,mcc,60.80
2022-03-29T09:39:00,mcc,59.20
2022-03-29T09:40:00,mcc,58.52
2022-03-29T09:41:00,mcc,57.43
2022-03-29T09:42:00,mcc,54.32
2022-03-29T09:43:00,mcc,55.59
2022-03-29T09:44:00,mcc,56.12
2022-03-29T09:45:00,mcc,56.56
2022-03-29T09:46:00,mcc,52.65
2022-03-29T09:47:00,mcc,52.68
2022-03-29T09:48:00,mcc,50.53
2022-03-29T09:49:00,mcc,52.83
2022-03-29T09:50:00,mcc,54.85
2022-03-29T09:51:00,mcc,53.45
2022-03-29T09:52:00,mcc,53.62
2022-03-29T09:53:00,mcc,56.19
2022-03-29T09:54:00,mcc,63.98
2022-03-29T09:55:00,mcc,57.30
2022-03-29T09:56:00,mcc,60.56
2022-03-29T09:57:00,mcc,58.10
2022-03-29T09:58:00,mcc,58.93
2022-03-29T09:59:00,mcc,58.60
2022-03-29T10:00:00,mcc,67.82
2022-03-29T10:01:00,mcc,61.51
2022-03-29T10:02:00,mcc,57.34
2022-03-29T10:03:00,mcc,72.78
2022-03-29T10:04:00,mcc,53.72
2022-03-29T10:05:00,mcc,55.65
2022-03-29T10:06:00,mcc,61.91
2022-03-29T10:07:00,mcc,60.39
2022-03-29T10:08:00,mcc,55.31
2022-03-29T10:09:00,mcc,57.39
2022-03-29T10:10:00,mcc,57.96
2022-03-29T10:11:00,mcc,55.13
2022-03-29T10:12:00,mcc,63.01
2022-03-29T10:13:00,mcc,67.01
2022-03-29T10:14:00,mcc,58.23
2022-03-29T10:15:00,mcc,57.61
2022-03-29T10:16:00,mcc,57.41
2022-03-29T10:17:00,mcc,57.74
2022-03-29T10:18:00,mcc,58.67
2022-03-29T10:19:00,mcc,58.29
2022-03-29T10:20:00,mcc,58.18
2022-03-29T10:21:00,mcc,56.94
2022-03-29T10:22:00,mcc,56.00
2022-03-29T10:23:00,mcc,54.66
2022-03-29T10:24:00,mcc,54.78
2022-03-29T10:25:00,mcc,58.31
2022-03-29T10:26:00,mcc,70.56
2022-03-29T10:27:00,mcc,55.41
2022-03-29T10:28:00,mcc,52.49
2022-03-29T10:29:00,mcc,51.97
2022-03-29T10:30:00,mcc,53.73
2022-03-29T10:31:00,mcc,65.74
2022-03-29T10:32:00,mcc,52.61
2022-03-29T10:33:00,mcc,52.76
2022-03-29T10:34:00,mcc,50.45
2022-03-29T10:35:00,mcc,50.94
2022-03-29T10:36:00,mcc,53.75
2022-03-29T10:37:00,mcc,63.24
2022-03-29T10:38:00,mcc,57.35
2022-03-29T10:39:00,mcc,56.14
2022-03-29T10:40:00,mcc,55.86
2022-03-29T10:41:00,mcc,56.78
2022-03-29T10:42:00,mcc,61.79
2022-03-29T10:43:00,mcc,70.20
2022-03-29T10:44:00,mcc,68.41
2022-03-29T10:45:00,mcc,68.05
2022-03-29T10:46:00,mcc,65.99
2022-03-29T10:47:00,mcc,57.46
2022-03-29T10:48:00,mcc,59.10
2022-03-29T10:49:00,mcc,60.44
2022-03-29T10:50:00,mcc,63.48
2022-03-29T10:51:00,mcc,56.68
2022-03-29T10:52:00,mcc,57.79
2022-03-29T10:53:00,mcc,57.96
2022-03-29T10:54:00,mcc,67.67
2022-03-29T10:55:00,mcc,58.09
2022-03-29T10:56:00,mcc,59.94
2022-03-29T10:57:00,mcc,59.47
2022-03-29T10:58:00,mcc,59.05
2022-03-29T10:59:00,mcc,66.14
2022-03-29T11:00:00,mcc,58.34
2022-03-29T11:01:00,mcc,57.06
2022-03-29T11:02:00,mcc,59.67
2022-03-29T11:03:00,mcc,58.23
2022-03-29T11:04:00,mcc,59.85
2022-03-29T11:05:00,mcc,62.36
2022-03-29T11:06:00,mcc,86.29
2022-03-29T11:07:00,mcc,68.22
2022-03-29T11:08:00,mcc,59.67
2022-03-29T11:09:00,mcc,61.54
2022-03-29T11:10:00,mcc,59.90
2022-03-29T11:11:00,mcc,64.30
2022-03-29T11:12:00,mcc,58.57
2022-03-29T11:13:00,mcc,68.42
2022-03-29T11:14:00,mcc,58.15
2022-03-29T11:15:00,mcc,60.45
2022-03-29T11:16:00,mcc,65.33
2022-03-29T11:17:00,mcc,66.33
2022-03-29T11:18:00,mcc,66.59
2022-03-29T11:19:00,mcc,72.27
2022-03-29T11:20:00,mcc,58.13
2022-03-29T11:21:00,mcc,53.74
2022-03-29T11:22:00,mcc,57.87
2022-03-29T11:23:00,mcc,57.27
2022-03-29T11:24:00,mcc,57.90
2022-03-29T11:25:00,mcc,58.07
2022-03-29T11:26:00,mcc,62.06
2022-03-29T11:27:00,mcc,57.61
2022-03-29T11:28:00,mcc,59.20
2022-03-29T11:29:00,mcc,61.49
2022-03-29T11:30:00,mcc,60.41
2022-03-29T11:31:00,mcc,62.12
2022-03-29T11:32:00,mcc,59.09
2022-03-29T11:33:00,mcc,60.04
2022-03-29T11:34:00,mcc,59.51
2022-03-29T11:35:00,mcc,59.40
2022-03-29T11:36:00,mcc,59.93
2022-03-29T11:37:00,mcc,57.59
2022-03-29T11:38:00,mcc,58.80
2022-03-29T11:39:00,mcc,65.62
2022-03-29T11:40:00,mcc,57.16
2022-03-29T11:41:00,mcc,58.09
2022-03-29T11:42:00,mcc,56.65
2022-03-29T11:43:00,mcc,58.75
2022-03-29T11:44:00,mcc,59.87
2022-03-29T11:45:00,mcc,65.51
2022-03-29T11:46:00,mcc,59.37
2022-03-29T11:47:00,mcc,57.47
2022-03-29T11:48:00,mcc,59.07
2022-03-29T11:49:00,mcc,56.13
2022-03-29T11:50:00,mcc,56.18
2022-03-29T11:51:00,mcc,51.78
2022-03-29T11:52:00,mcc,54.86
2022-03-29T11:53:00,mcc,56.62
2022-03-29T11:54:00,mcc,61.30
2022-03-29T11:55:00,mcc,68.72
2022-03-29T11:56:00,mcc,58.99
2022-03-29T11:57:00,mcc,61.99
2022-03-29T11:58:00,mcc,68.37
2022-03-29T11:59:00,mcc,59.82
2022-03-29T12:00:00,mcc,61.43
2022-03-29T12:01:00,mcc,75.73
2022-03-29T12:02:00,mcc,64.78
2022-03-29T12:03:00,mcc,59.32
2022-03-29T12:04:00,mcc,59.11
2022-03-29T12:05:00,mcc,61.92
2022-03-29T12:06:00,mcc,61.03
2022-03-29T12:07:00,mcc,58.04
2022-03-29T12:08:00,mcc,60.66
2022-03-29T12:09:00,mcc,54.63
2022-03-29T12:10:00,mcc,57.30
2022-03-29T12:11:00,mcc,66.02
2022-03-29T12:12:00,mcc,55.52
2022-03-29T12:13:00,mcc,58.06
2022-03-29T12:14:00,mcc,53.73
2022-03-29T12:15:00,mcc,54.98
2022-03-29T12:16:00,mcc,59.51
2022-03-29T12:17:00,mcc,65.87
2022-03-29T12:18:00,mcc,69.86
2022-03-29T12:19:00,mcc,59.39
2022-03-29T12:20:00,mcc,58.96
2022-03-29T12:21:00,mcc,59.13
2022-03-29T12:22:00,mcc,67.15
2022-03-29T12:23:00,mcc,67.02
2022-03-29T12:24:00,mcc,68.11
2022-03-29T12:25:00,mcc,73.44
2022-03-29T12:26:00,mcc,59.71
2022-03-29T12:27:00,mcc,59.34
2022-03-29T12:28:00,mcc,60.70
2022-03-29T12:29:00,mcc,61.29
2022-03-29T12:30:00,mcc,61.73
2022-03-29T12:31:00,mcc,65.51
2022-03-29T12:32:00,mcc,62.71
2022-03-29T12:33:00,mcc,65.85
2022-03-29T12:34:00,mcc,65.51
2022-03-29T12:35:00,mcc,67.72
2022-03-29T12:36:00,mcc,75.70
2022-03-29T12:37:00,mcc,68.35
2022-03-29T12:38:00,mcc,63.97
2022-03-29T12:39:00,mcc,63.11
2022-03-29T12:40:00,mcc,65.57
2022-03-29T12:41:00,mcc,64.88
2022-03-29T12:42:00,mcc,64.76
2022-03-29T12:43:00,mcc,63.36
2022-03-29T12:44:00,mcc,63.84
2022-03-29T12:45:00,mcc,68.55
2022-03-29T12:46:00,mcc,83.64
2022-03-29T12:47:00,mcc,66.49
2022-03-29T12:48:00,mcc,59.81
2022-03-29T12:49:00,mcc,69.74
2022-03-29T12:50:00,mcc,64.34
2022-03-29T12:51:00,mcc,66.89
2022-03-29T12:52:00,mcc,69.02
2022-03-29T12:53:00,mcc,63.87
2022-03-29T12:54:00,mcc,65.22
2022-03-29T12:55:00,mcc,70.08
2022-03-29T12:56:00,mcc,63.01
2022-03-29T12:57:00,mcc,64.77
2022-03-29T12:58:00,mcc,59.74
2022-03-29T12:59:00,mcc,62.09
2022-03-29T13:00:00,mcc,61.20
2022-03-29T13:01:00,mcc,69.19
2022-03-29T13:02:00,mcc,63.41
2022-03-29T13:03:00,mcc,60.67
2022-03-29T13:04:00,mcc,62.34
2022-03-29T13:05:00,mcc,65.07
2022-03-29T13:06:00,mcc,66.00
2022-03-29T13:07:00,mcc,63.74
2022-03-29T13:08:00,mcc,72.39
2022-03-29T13:09:00,mcc,63.55
2022-03-29T13:10:00,mcc,66.38
2022-03-29T13:11:00,mcc,65.00
2022-03-29T13:12:00,mcc,66.07
2022-03-29T13:13:00,mcc,65.03
2022-03-29T13:14:00,mcc,76.09
2022-03-29T13:15:00,mcc,66.86
2022-03-29T13:16:00,mcc,66.31
2022-03-29T13:17:00,mcc,64.51
2022-03-29T13:18:00,mcc,64.30